Location: Newark
(45.5000°N, 11.4167°E)
Time: 22:37:05
(UTC+00:00)

Tiros 1 - Visible Passes

Search period start: 19 August 2019 00:00
Search period end: 29 August 2019 00:00
Orbit: 630 x 664 km, 48.4° (Epoch: 18 August)

Date Brightness Start Highest point End Pass type
(mag) Time Alt. Az. Time Alt. Az. Time Alt. Az.
19 Aug 7.0 01:29:27 78° ESE 01:29:27 78° ESE 01:33:57 10° ENE visible
19 Aug 7.6 03:07:06 10° W 03:11:39 60° N 03:16:20 10° ENE visible
20 Aug 9.4 00:16:35 17° E 00:16:35 17° E 00:17:44 10° ENE visible
20 Aug 7.2 01:54:15 49° W 01:55:23 72° NNW 02:00:06 10° ENE visible
20 Aug 7.6 03:33:16 10° WNW 03:37:55 63° N 03:42:36 10° E visible
21 Aug 8.6 00:41:24 32° ENE 00:41:24 32° ENE 00:43:56 10° ENE visible
21 Aug 7.5 02:19:03 25° WNW 02:21:38 61° N 02:26:18 10° ENE visible
22 Aug 7.6 01:06:14 57° NE 01:06:14 57° NE 01:10:05 10° ENE visible
22 Aug 7.5 02:43:54 14° WNW 02:47:54 62° N 02:52:34 10° E visible
22 Aug 9.8 23:53:28 13° ENE 23:53:28 13° ENE 23:53:55 10° ENE visible
23 Aug 7.4 01:31:08 57° NW 01:31:37 61° N 01:36:16 10° ENE visible
23 Aug 7.3 03:09:26 10° WNW 03:14:07 77° NNE 03:18:50 10° ESE visible
24 Aug 9.2 00:18:27 21° ENE 00:18:27 21° ENE 00:20:04 10° ENE visible
24 Aug 7.5 01:56:07 36° WNW 01:57:53 61° N 02:02:32 10° E visible
24 Aug 7.1 03:35:34 10° WNW 03:40:13 73° SSW 03:44:56 10° ESE visible
25 Aug 8.6 00:43:33 33° ENE 00:43:33 33° ENE 00:46:15 10° ENE visible
25 Aug 7.2 02:21:13 23° WNW 02:24:07 75° NNE 02:28:49 10° E visible
26 Aug 7.9 01:08:48 49° NE 01:08:48 49° NE 01:12:29 10° E visible
26 Aug 7.0 02:46:29 16° WNW 02:50:14 76° SSW 02:54:56 10° ESE visible
27 Aug 7.3 01:34:19 71° NE 01:34:19 71° NE 01:38:47 10° E visible
27 Aug 7.5 03:12:02 11° WNW 03:16:12 44° SSW 03:20:40 10° SE visible
28 Aug 9.9 00:22:26 10° E 00:22:26 10° E 00:22:28 10° E visible
28 Aug 6.9 02:00:11 80° SW 02:00:14 80° SSW 02:04:55 10° ESE visible
28 Aug 8.3 03:38:16 10° W 03:41:59 24° SW 03:45:43 10° SSE visible
